contact:dominique.lefevre@mio.osupytheas.fr, maurice.libes@osupytheas.fr, didier.mallarino@osupytheas.fr
Project:EMSO http://www.emso-fr.org/EMSO-France
Depth: 2436.0 m
Title:EMSO Ligure Ouest : Data MII capteur AQUADOPP
Date,Latitude,Longitude,X_East,Y_North,Z_Up,Amplitude_X,Amplitude_Y,Amplitude_Z,Batterie,SoundSpeed,Heading,Pitch,Roll,Pressure,TIS,Speed,Direction
, degrees North, degrees East, m.s-1, m.s-1,m.s-1, 1, 1, 1, Volt, m.s-1, degree, degree, degree, dbar, degree_C, m.s-1, degree
2020-05-14T00:04:03,42.805,6.029,0.005,0.014,-0.008,103.0,108.0,101.0,13.3,1505.3,326.7,-0.7,1.8,2470.443,13.31,0.014,19.6
2020-05-14T00:07:03,42.805,6.029,-0.006,0.011,-0.05,103.0,106.0,101.0,13.4,1505.3,328.5,-0.7,1.8,2470.414,13.32,0.012,331.4
2020-05-14T00:10:03,42.805,6.029,-0.022,0.034,-0.045,103.0,107.0,101.0,13.4,1505.3,324.4,-0.7,1.8,2470.402,13.33,0.04,327.1
2020-05-14T00:13:03,42.805,6.029,0.001,0.015,-0.025,102.0,107.0,102.0,13.4,1505.3,325.3,-0.7,1.8,2470.438,13.33,0.015,3.8
2020-05-14T00:16:03,42.805,6.029,-0.011,0.036,-0.009,103.0,107.0,102.0,13.4,1505.3,325.2,-0.7,1.8,2470.451,13.33,0.037,343.0
2020-05-14T00:19:03,42.805,6.029,0.004,0.026,-0.053,104.0,107.0,101.0,13.4,1505.3,324.8,-0.7,1.8,2470.431,13.33,0.026,8.7
2020-05-14T00:22:03,42.805,6.029,0.012,0.038,-0.042,104.0,107.0,100.0,13.4,1505.3,326.4,-0.7,1.8,2470.462,13.33,0.039,17.5
2020-05-14T00:25:03,42.805,6.029,-0.011,0.043,0.0,104.0,109.0,100.0,13.3,1505.3,324.6,-0.7,1.9,2470.4,13.33,0.044,345.7
2020-05-14T00:28:03,42.805,6.029,-0.012,0.039,-0.031,104.0,107.0,100.0,13.3,1505.3,324.6,-0.7,1.9,2470.438,13.33,0.04,342.9
2020-05-14T00:31:03,42.805,6.029,-0.023,0.041,-0.034,105.0,108.0,101.0,13.3,1505.3,325.0,-0.7,1.8,2470.363,13.33,0.047,330.7
2020-05-14T00:34:03,42.805,6.029,0.008,0.035,-0.018,104.0,107.0,101.0,13.3,1505.3,327.7,-0.7,1.8,2470.373,13.33,0.035,12.9
2020-05-14T00:37:03,42.805,6.029,-0.002,0.033,0.006,103.0,106.0,101.0,13.4,1505.3,325.9,-0.7,1.9,2470.396,13.33,0.033,356.5
2020-05-14T00:40:03,42.805,6.029,0.019,0.023,0.009,104.0,109.0,101.0,13.4,1505.3,326.3,-0.7,1.8,2470.471,13.33,0.029,39.6
2020-05-14T00:43:03,42.805,6.029,-0.001,0.024,-0.031,104.0,109.0,101.0,13.3,1505.3,327.0,-0.7,1.8,2470.43,13.33,0.024,357.6
2020-05-14T00:46:03,42.805,6.029,0.014,0.029,-0.021,104.0,110.0,101.0,13.4,1505.3,327.9,-0.7,1.8,2470.427,13.33,0.032,25.8
2020-05-14T00:49:03,42.805,6.029,-0.01,0.044,-0.022,103.0,109.0,100.0,13.4,1505.3,324.4,-0.7,1.8,2470.443,13.33,0.045,347.2
2020-05-14T00:52:03,42.805,6.029,0.005,0.031,-0.024,103.0,109.0,101.0,13.3,1505.3,325.4,-0.7,1.8,2470.406,13.33,0.031,9.2
2020-05-14T00:55:03,42.805,6.029,0.001,0.025,-0.004,103.0,109.0,101.0,13.4,1505.3,324.2,-0.7,1.8,2470.422,13.33,0.025,2.3
2020-05-14T00:58:03,42.805,6.029,0.013,0.036,-0.02,104.0,109.0,101.0,13.4,1505.3,323.8,-0.7,1.8,2470.423,13.33,0.038,19.9
2020-05-14T01:04:03,42.805,6.029,0.015,0.03,-0.055,104.0,111.0,102.0,13.4,1505.3,324.8,-0.7,1.8,2470.474,13.31,0.033,26.6
2020-05-14T01:07:03,42.805,6.029,0.015,0.034,0.002,105.0,110.0,103.0,13.4,1505.3,325.1,-0.7,1.8,2470.459,13.32,0.037,23.8
2020-05-14T01:10:03,42.805,6.029,-0.016,0.048,-0.028,104.0,109.0,102.0,13.4,1505.3,324.6,-0.7,1.8,2470.46,13.33,0.05,341.6
2020-05-14T01:13:03,42.805,6.029,0.016,0.042,-0.002,104.0,109.0,101.0,13.4,1505.3,325.4,-0.7,1.8,2470.425,13.33,0.044,20.9
2020-05-14T01:16:03,42.805,6.029,0.001,0.039,-0.02,104.0,108.0,102.0,13.4,1505.3,326.8,-0.7,1.8,2470.362,13.33,0.039,1.5
2020-05-14T01:19:03,42.805,6.029,-0.016,0.032,-0.023,107.0,108.0,101.0,13.3,1505.3,323.3,-0.7,1.9,2470.44,13.33,0.035,333.4
2020-05-14T01:22:03,42.805,6.029,-0.012,0.02,-0.035,103.0,109.0,102.0,13.4,1505.3,326.8,-0.7,1.8,2470.408,13.33,0.023,329.0
2020-05-14T01:25:03,42.805,6.029,0.019,0.049,-0.012,104.0,109.0,101.0,13.3,1505.3,326.4,-0.7,1.8,2470.446,13.33,0.052,21.2
2020-05-14T01:28:03,42.805,6.029,0.016,0.029,-0.008,105.0,109.0,101.0,13.3,1505.3,323.7,-0.7,1.8,2470.357,13.33,0.033,28.9
2020-05-14T01:31:03,42.805,6.029,-0.014,0.026,-0.035,104.0,108.0,102.0,13.4,1505.3,324.7,-0.7,1.8,2470.413,13.33,0.029,331.7
2020-05-14T01:34:03,42.805,6.029,0.008,0.026,-0.013,105.0,110.0,101.0,13.4,1505.3,323.2,-0.7,1.8,2470.396,13.33,0.027,17.1
2020-05-14T01:37:03,42.805,6.029,-0.01,0.014,-0.034,104.0,110.0,102.0,13.4,1505.3,325.2,-0.7,1.9,2470.444,13.33,0.017,324.5
2020-05-14T01:40:03,42.805,6.029,0.011,0.033,-0.043,104.0,109.0,101.0,13.4,1505.3,325.3,-0.7,1.8,2470.378,13.33,0.034,18.4
2020-05-14T01:43:03,42.805,6.029,-0.008,0.022,-0.021,103.0,109.0,102.0,13.3,1505.3,327.4,-0.7,1.8,2470.435,13.33,0.023,340.0
2020-05-14T01:46:03,42.805,6.029,0.024,0.035,0.0,105.0,111.0,100.0,13.4,1505.3,324.7,-0.7,1.8,2470.366,13.33,0.042,34.4
2020-05-14T01:49:03,42.805,6.029,-0.01,0.028,-0.025,103.0,110.0,101.0,13.3,1505.3,324.2,-0.7,1.8,2470.424,13.33,0.029,340.4
2020-05-14T01:52:03,42.805,6.029,0.019,0.032,-0.017,104.0,110.0,101.0,13.4,1505.3,326.1,-0.7,1.9,2470.389,13.33,0.037,30.7
2020-05-14T01:55:03,42.805,6.029,0.001,0.034,-0.051,105.0,110.0,101.0,13.4,1505.3,327.2,-0.7,1.8,2470.364,13.33,0.034,1.7
2020-05-14T01:58:03,42.805,6.029,-0.016,0.039,0.002,105.0,110.0,101.0,13.4,1505.3,325.5,-0.7,1.8,2470.414,13.33,0.042,337.7
2020-05-14T02:04:03,42.805,6.029,0.008,0.028,-0.003,104.0,110.0,101.0,13.4,1505.3,323.4,-0.7,1.8,2470.423,13.31,0.029,15.9
2020-05-14T02:07:03,42.805,6.029,-0.015,0.05,-0.023,103.0,109.0,102.0,13.4,1505.3,326.8,-0.7,1.8,2470.389,13.32,0.052,343.3
2020-05-14T02:10:03,42.805,6.029,0.014,0.048,-0.016,104.0,109.0,101.0,13.3,1505.3,326.8,-0.8,1.9,2470.408,13.33,0.05,16.3
2020-05-14T02:13:03,42.805,6.029,0.009,0.021,-0.02,103.0,109.0,100.0,13.3,1505.3,326.1,-0.7,1.8,2470.425,13.33,0.022,23.2
2020-05-14T02:16:03,42.805,6.029,0.0,0.043,-0.029,103.0,109.0,100.0,13.4,1505.3,327.3,-0.7,1.8,2470.411,13.33,0.043,0.0
2020-05-14T02:19:03,42.805,6.029,-0.021,0.044,-0.032,104.0,110.0,102.0,13.3,1505.3,324.0,-0.7,1.8,2470.417,13.33,0.048,334.5
2020-05-14T02:22:03,42.805,6.029,-0.017,0.039,0.0,104.0,109.0,101.0,13.4,1505.3,322.8,-0.7,1.9,2470.433,13.33,0.042,336.5
2020-05-14T02:25:03,42.805,6.029,0.008,0.031,-0.036,104.0,110.0,101.0,13.4,1505.3,326.8,-0.7,1.9,2470.391,13.33,0.032,14.5
2020-05-14T02:28:03,42.805,6.029,-0.01,0.026,-0.037,102.0,110.0,101.0,13.4,1505.3,325.9,-0.7,1.9,2470.39,13.33,0.027,339.0
2020-05-14T02:31:03,42.805,6.029,0.007,0.023,0.001,105.0,109.0,103.0,13.4,1505.3,326.9,-0.7,1.8,2470.428,13.33,0.024,16.9
2020-05-14T02:34:03,42.805,6.029,0.0,0.043,-0.024,103.0,110.0,102.0,13.4,1505.3,326.5,-0.7,1.8,2470.403,13.33,0.043,0.0
2020-05-14T02:37:03,42.805,6.029,0.002,0.024,-0.018,103.0,110.0,101.0,13.3,1505.3,324.1,-0.7,1.8,2470.41,13.33,0.024,4.8
2020-05-14T02:40:03,42.805,6.029,-0.035,0.022,-0.064,103.0,110.0,101.0,13.4,1505.3,326.7,-0.7,1.8,2470.406,13.33,0.041,302.2
2020-05-14T02:43:03,42.805,6.029,0.008,0.028,-0.05,103.0,108.0,101.0,13.4,1505.3,327.4,-0.7,1.9,2470.377,13.33,0.029,15.9
2020-05-14T02:46:03,42.805,6.029,-0.009,0.036,-0.04,104.0,111.0,101.0,13.4,1505.3,326.5,-0.7,1.8,2470.373,13.33,0.037,346.0
2020-05-14T02:49:03,42.805,6.029,-0.011,0.029,-0.025,103.0,110.0,101.0,13.4,1505.3,327.0,-0.7,1.8,2470.395,13.33,0.031,339.2
2020-05-14T02:52:03,42.805,6.029,-0.004,0.046,0.0,103.0,109.0,101.0,13.4,1505.4,325.9,-0.7,1.8,2470.388,13.34,0.046,355.0
2020-05-14T02:55:03,42.805,6.029,-0.025,0.049,-0.023,103.0,110.0,102.0,13.4,1505.4,325.3,-0.7,1.8,2470.372,13.34,0.055,333.0
2020-05-14T02:58:03,42.805,6.029,-0.009,0.027,-0.043,104.0,109.0,101.0,13.4,1505.4,323.3,-0.7,1.8,2470.366,13.34,0.028,341.6
2020-05-14T03:04:03,42.805,6.029,-0.007,0.031,-0.03,103.0,110.0,100.0,13.4,1505.3,325.4,-0.7,1.9,2470.416,13.31,0.031,347.3
2020-05-14T03:07:03,42.805,6.029,0.001,0.044,-0.006,104.0,109.0,101.0,13.3,1505.3,325.5,-0.7,1.8,2470.405,13.32,0.044,1.3
2020-05-14T03:10:03,42.805,6.029,0.012,0.032,0.003,103.0,110.0,100.0,13.4,1505.3,327.1,-0.7,1.8,2470.397,13.33,0.034,20.6
2020-05-14T03:13:03,42.805,6.029,0.015,0.027,0.001,104.0,109.0,102.0,13.3,1505.3,328.4,-0.7,1.8,2470.415,13.33,0.03,29.1
2020-05-14T03:16:03,42.805,6.029,0.011,0.013,-0.019,104.0,108.0,101.0,13.4,1505.3,328.5,-0.7,1.9,2470.378,13.33,0.017,40.2
2020-05-14T03:19:03,42.805,6.029,0.003,0.043,-0.053,103.0,111.0,101.0,13.3,1505.3,325.4,-0.7,1.8,2470.357,13.33,0.043,4.0
2020-05-14T03:22:03,42.805,6.029,-0.008,0.026,-0.022,104.0,109.0,101.0,13.4,1505.3,324.7,-0.7,1.8,2470.361,13.33,0.027,342.9
2020-05-14T03:25:03,42.805,6.029,0.003,0.053,-0.04,103.0,109.0,99.0,13.4,1505.3,324.2,-0.7,1.8,2470.369,13.33,0.053,3.2
2020-05-14T03:28:03,42.805,6.029,0.017,0.032,-0.007,103.0,110.0,100.0,13.3,1505.3,325.9,-0.7,1.8,2470.391,13.33,0.036,28.0
2020-05-14T03:31:03,42.805,6.029,0.003,0.048,-0.026,103.0,108.0,100.0,13.4,1505.3,323.9,-0.7,1.8,2470.36,13.33,0.048,3.6
2020-05-14T03:34:03,42.805,6.029,-0.001,0.022,-0.046,103.0,108.0,101.0,13.4,1505.3,327.4,-0.7,1.8,2470.358,13.33,0.022,357.4
2020-05-14T03:37:03,42.805,6.029,0.007,0.041,-0.019,103.0,110.0,100.0,13.3,1505.3,325.5,-0.7,1.8,2470.415,13.33,0.041,9.7
2020-05-14T03:40:03,42.805,6.029,0.01,0.042,-0.006,103.0,108.0,101.0,13.4,1505.3,326.9,-0.7,1.9,2470.361,13.33,0.043,13.4
2020-05-14T03:43:03,42.805,6.029,-0.003,0.035,-0.001,101.0,108.0,102.0,13.4,1505.3,324.5,-0.7,1.8,2470.373,13.33,0.035,355.1
2020-05-14T03:46:03,42.805,6.029,0.015,0.031,-0.036,103.0,109.0,100.0,13.4,1505.3,323.8,-0.7,1.8,2470.381,13.33,0.034,25.8
2020-05-14T03:49:03,42.805,6.029,0.024,0.018,-0.028,103.0,109.0,100.0,13.4,1505.4,323.9,-0.7,1.8,2470.37,13.34,0.03,53.1
2020-05-14T03:52:03,42.805,6.029,0.045,0.02,-0.021,104.0,108.0,102.0,13.3,1505.4,326.6,-0.8,1.8,2470.361,13.34,0.049,66.0
2020-05-14T03:55:03,42.805,6.029,0.029,0.025,-0.012,103.0,110.0,101.0,13.4,1505.4,326.4,-0.7,1.8,2470.322,13.34,0.038,49.2
2020-05-14T03:58:03,42.805,6.029,0.021,0.018,-0.014,102.0,108.0,102.0,13.4,1505.4,326.8,-0.7,1.9,2470.334,13.34,0.027,49.4
2020-05-14T04:04:03,42.805,6.029,-0.022,0.036,-0.037,104.0,109.0,100.0,13.3,1505.3,326.5,-0.7,1.8,2470.395,13.32,0.042,328.6
2020-05-14T04:07:03,42.805,6.029,-0.018,0.039,-0.061,104.0,108.0,101.0,13.4,1505.3,327.1,-0.7,1.9,2470.404,13.32,0.042,335.2
2020-05-14T04:10:03,42.805,6.029,0.008,0.048,-0.029,103.0,109.0,100.0,13.4,1505.3,324.7,-0.7,1.8,2470.393,13.33,0.048,9.5
2020-05-14T04:13:03,42.805,6.029,-0.034,0.035,-0.03,103.0,110.0,100.0,13.4,1505.3,323.3,-0.7,1.8,2470.39,13.33,0.048,315.8
2020-05-14T04:16:03,42.805,6.029,0.021,0.022,-0.022,104.0,109.0,101.0,13.4,1505.3,327.2,-0.7,1.8,2470.359,13.33,0.03,43.7
2020-05-14T04:19:03,42.805,6.029,0.001,0.021,-0.04,105.0,108.0,103.0,13.4,1505.3,326.2,-0.7,1.8,2470.385,13.33,0.021,2.7
2020-05-14T04:22:03,42.805,6.029,0.009,0.02,-0.045,103.0,109.0,102.0,13.3,1505.3,325.0,-0.7,1.8,2470.283,13.33,0.021,24.2
2020-05-14T04:25:03,42.805,6.029,-0.002,0.028,-0.027,104.0,110.0,100.0,13.4,1505.4,326.2,-0.7,1.8,2470.325,13.34,0.028,355.9
2020-05-14T04:28:03,42.805,6.029,-0.011,0.029,-0.046,103.0,109.0,101.0,13.4,1505.4,323.7,-0.7,1.8,2470.368,13.34,0.031,339.2
2020-05-14T04:31:03,42.805,6.029,-0.003,0.032,-0.02,103.0,109.0,100.0,13.4,1505.4,328.7,-0.7,1.9,2470.341,13.34,0.032,354.6
2020-05-14T04:34:03,42.805,6.029,-0.001,0.026,-0.041,105.0,110.0,101.0,13.4,1505.4,326.3,-0.7,1.8,2470.321,13.34,0.026,357.8
2020-05-14T04:37:03,42.805,6.029,0.002,0.031,-0.03,104.0,109.0,100.0,13.4,1505.3,324.0,-0.7,1.8,2470.315,13.33,0.031,3.7
2020-05-14T04:40:03,42.805,6.029,0.018,0.036,-0.003,104.0,109.0,101.0,13.4,1505.4,324.9,-0.7,1.8,2470.358,13.34,0.04,26.6
2020-05-14T04:43:03,42.805,6.029,0.0,0.02,-0.045,103.0,109.0,100.0,13.4,1505.3,324.4,-0.7,1.8,2470.322,13.33,0.02,0.0
2020-05-14T04:46:03,42.805,6.029,0.012,0.012,-0.021,103.0,109.0,101.0,13.4,1505.3,328.1,-0.7,1.8,2470.311,13.33,0.016,45.0
2020-05-14T04:49:03,42.805,6.029,0.005,0.008,-0.026,104.0,109.0,100.0,13.3,1505.4,325.9,-0.7,1.8,2470.358,13.34,0.009,32.0
2020-05-14T04:52:03,42.805,6.029,-0.008,0.018,-0.019,101.0,109.0,101.0,13.4,1505.4,327.3,-0.7,1.8,2470.3,13.34,0.019,336.0
2020-05-14T04:55:03,42.805,6.029,0.005,0.055,-0.023,103.0,108.0,102.0,13.4,1505.4,325.1,-0.7,1.8,2470.311,13.34,0.055,5.2
2020-05-14T04:58:03,42.805,6.029,-0.006,0.045,-0.024,103.0,108.0,101.0,13.4,1505.3,326.8,-0.7,1.8,2470.283,13.33,0.045,352.4
2020-05-14T05:04:03,42.805,6.029,-0.018,0.019,-0.061,104.0,109.0,101.0,13.3,1505.3,326.0,-0.7,1.8,2470.349,13.31,0.026,316.5
2020-05-14T05:07:03,42.805,6.029,0.012,0.031,-0.04,104.0,110.0,99.0,13.4,1505.3,326.6,-0.7,1.9,2470.361,13.32,0.033,21.2
2020-05-14T05:10:03,42.805,6.029,-0.013,0.024,-0.029,102.0,110.0,101.0,13.3,1505.3,325.9,-0.7,1.9,2470.375,13.33,0.027,331.6
2020-05-14T05:13:03,42.805,6.029,-0.009,0.014,-0.052,102.0,110.0,102.0,13.4,1505.3,327.0,-0.7,1.9,2470.372,13.33,0.016,327.3
2020-05-14T05:16:03,42.805,6.029,-0.001,0.011,-0.049,102.0,109.0,101.0,13.4,1505.3,323.9,-0.7,1.8,2470.328,13.33,0.011,354.8
2020-05-14T05:19:03,42.805,6.029,-0.013,0.024,-0.039,103.0,110.0,100.0,13.4,1505.3,326.4,-0.7,1.9,2470.373,13.33,0.027,331.6
2020-05-14T05:22:03,42.805,6.029,-0.002,0.028,-0.065,102.0,109.0,101.0,13.4,1505.3,325.1,-0.7,1.8,2470.32,13.33,0.028,355.9
2020-05-14T05:25:03,42.805,6.029,0.015,0.044,0.004,102.0,108.0,101.0,13.4,1505.3,325.1,-0.7,1.8,2470.349,13.33,0.046,18.8
2020-05-14T05:28:03,42.805,6.029,-0.016,0.037,-0.011,104.0,108.0,102.0,13.4,1505.4,326.2,-0.7,1.8,2470.37,13.34,0.04,336.6
2020-05-14T05:31:03,42.805,6.029,0.013,0.037,-0.005,102.0,108.0,101.0,13.4,1505.4,326.4,-0.7,1.8,2470.328,13.34,0.039,19.4
2020-05-14T05:34:03,42.805,6.029,0.009,0.015,-0.023,104.0,107.0,101.0,13.4,1505.3,325.2,-0.7,1.8,2470.332,13.33,0.017,31.0
2020-05-14T05:37:03,42.805,6.029,0.015,0.025,-0.015,103.0,108.0,102.0,13.4,1505.4,324.4,-0.7,1.8,2470.355,13.34,0.029,31.0
2020-05-14T05:40:03,42.805,6.029,0.02,0.032,-0.031,103.0,108.0,101.0,13.3,1505.4,325.1,-0.7,1.8,2470.328,13.34,0.037,32.0
2020-05-14T05:43:03,42.805,6.029,0.031,0.031,-0.006,103.0,109.0,101.0,13.4,1505.4,326.7,-0.7,1.8,2470.298,13.34,0.043,45.0
2020-05-14T05:46:03,42.805,6.029,0.003,0.036,-0.038,103.0,107.0,101.0,13.4,1505.4,324.4,-0.7,1.8,2470.34,13.34,0.036,4.8
2020-05-14T05:49:03,42.805,6.029,-0.004,0.024,-0.022,104.0,107.0,101.0,13.4,1505.4,327.9,-0.7,1.8,2470.318,13.34,0.024,350.5
2020-05-14T05:52:03,42.805,6.029,0.027,0.028,0.011,102.0,108.0,101.0,13.4,1505.4,323.3,-0.7,1.8,2470.302,13.34,0.038,44.0
2020-05-14T05:55:03,42.805,6.029,-0.001,0.021,-0.026,103.0,107.0,101.0,13.3,1505.4,323.4,-0.7,1.8,2470.317,13.34,0.021,357.3
2020-05-14T05:58:03,42.805,6.029,0.028,0.018,-0.031,102.0,107.0,100.0,13.4,1505.4,323.8,-0.7,1.8,2470.32,13.34,0.033,57.3
2020-05-14T06:04:03,42.805,6.029,-0.005,0.02,-0.046,104.0,107.0,102.0,13.4,1505.3,326.7,-0.7,1.8,2470.346,13.32,0.02,346.0
2020-05-14T06:07:03,42.805,6.029,0.006,0.041,-0.034,103.0,107.0,100.0,13.4,1505.3,326.0,-0.7,1.9,2470.341,13.32,0.041,8.3
2020-05-14T06:10:03,42.805,6.029,-0.021,0.039,-0.026,103.0,108.0,100.0,13.4,1505.3,326.7,-0.7,1.8,2470.333,13.33,0.044,331.7
2020-05-14T06:13:03,42.805,6.029,0.017,0.031,-0.037,105.0,106.0,100.0,13.4,1505.3,326.8,-0.7,1.8,2470.32,13.33,0.035,28.7
2020-05-14T06:16:03,42.805,6.029,0.014,0.032,0.002,108.0,106.0,101.0,13.4,1505.3,327.1,-0.7,1.8,2470.289,13.33,0.034,23.6
2020-05-14T06:19:03,42.805,6.029,-0.008,0.015,-0.03,104.0,107.0,101.0,13.3,1505.4,325.7,-0.7,1.8,2470.283,13.34,0.017,331.9
2020-05-14T06:22:03,42.805,6.029,0.0,0.036,-0.032,102.0,107.0,101.0,13.4,1505.3,323.6,-0.7,1.8,2470.299,13.33,0.036,0.0
2020-05-14T06:25:03,42.805,6.029,0.009,0.021,-0.03,104.0,107.0,100.0,13.4,1505.4,324.9,-0.7,1.8,2470.34,13.34,0.022,23.2
2020-05-14T06:28:03,42.805,6.029,0.011,0.042,-0.022,103.0,106.0,101.0,13.4,1505.4,324.8,-0.7,1.8,2470.303,13.34,0.043,14.7
2020-05-14T06:31:03,42.805,6.029,0.018,0.019,0.003,103.0,106.0,100.0,13.3,1505.4,327.7,-0.8,1.8,2470.307,13.34,0.026,43.5
2020-05-14T06:34:03,42.805,6.029,0.047,0.016,-0.005,104.0,107.0,99.0,13.4,1505.4,326.4,-0.7,1.9,2470.243,13.34,0.049,71.2
2020-05-14T06:37:03,42.805,6.029,0.01,0.04,-0.035,105.0,109.0,101.0,13.4,1505.4,324.6,-0.7,1.8,2470.306,13.34,0.041,14.0
2020-05-14T06:40:03,42.805,6.029,0.015,0.038,-0.01,102.0,108.0,101.0,13.4,1505.4,324.5,-0.7,1.9,2470.322,13.34,0.04,21.5
2020-05-14T06:43:03,42.805,6.029,-0.016,0.022,0.003,103.0,107.0,101.0,13.4,1505.4,324.8,-0.7,1.8,2470.308,13.34,0.027,324.0
2020-05-14T06:46:03,42.805,6.029,-0.012,0.029,-0.027,104.0,107.0,100.0,13.4,1505.4,327.2,-0.7,1.8,2470.307,13.34,0.031,337.5
2020-05-14T06:49:03,42.805,6.029,0.005,0.016,-0.038,103.0,107.0,101.0,13.4,1505.4,324.2,-0.7,1.8,2470.352,13.34,0.016,17.4
2020-05-14T06:52:03,42.805,6.029,0.011,0.027,-0.037,105.0,107.0,101.0,13.4,1505.4,324.4,-0.7,1.8,2470.308,13.34,0.029,22.2
2020-05-14T06:55:03,42.805,6.029,0.027,0.057,0.025,103.0,108.0,100.0,13.3,1505.4,323.5,-0.7,1.9,2470.28,13.34,0.063,25.3
2020-05-14T06:58:03,42.805,6.029,0.006,0.02,-0.019,102.0,106.0,102.0,13.4,1505.4,324.6,-0.7,1.9,2470.333,13.34,0.02,16.7
2020-05-14T07:04:03,42.805,6.029,-0.002,0.028,-0.038,104.0,106.0,101.0,13.3,1505.3,328.6,-0.7,1.8,2470.339,13.32,0.028,355.9
2020-05-14T07:07:03,42.805,6.029,0.009,-0.002,-0.053,104.0,107.0,101.0,13.4,1505.3,325.0,-0.7,1.8,2470.369,13.33,0.009,102.5
2020-05-14T07:10:03,42.805,6.029,-0.003,0.016,-0.046,105.0,107.0,99.0,13.4,1505.3,325.7,-0.7,1.8,2470.304,13.33,0.016,349.4
2020-05-14T07:13:03,42.805,6.029,-0.004,0.016,-0.021,104.0,107.0,101.0,13.3,1505.3,325.3,-0.7,1.8,2470.31,13.33,0.016,346.0
2020-05-14T07:16:03,42.805,6.029,0.014,0.029,-0.017,106.0,107.0,100.0,13.3,1505.3,328.0,-0.7,1.8,2470.29,13.33,0.032,25.8
2020-05-14T07:19:03,42.805,6.029,0.009,0.03,-0.034,104.0,106.0,101.0,13.3,1505.4,326.5,-0.7,1.8,2470.315,13.34,0.031,16.7
2020-05-14T07:22:03,42.805,6.029,0.0,0.026,-0.054,105.0,107.0,100.0,13.4,1505.4,325.1,-0.7,1.8,2470.246,13.34,0.026,0.0
2020-05-14T07:25:03,42.805,6.029,-0.02,0.028,-0.064,103.0,108.0,101.0,13.4,1505.4,326.3,-0.7,1.8,2470.334,13.34,0.034,324.5
2020-05-14T07:28:03,42.805,6.029,0.0,0.033,-0.033,103.0,106.0,102.0,13.3,1505.4,327.8,-0.7,1.8,2470.295,13.34,0.033,0.0
2020-05-14T07:31:03,42.805,6.029,0.0,0.026,-0.029,103.0,105.0,101.0,13.4,1505.4,325.5,-0.7,1.9,2470.301,13.34,0.026,0.0
2020-05-14T07:34:03,42.805,6.029,-0.008,0.023,-0.057,103.0,107.0,100.0,13.4,1505.4,328.0,-0.7,1.8,2470.295,13.34,0.024,340.8
2020-05-14T07:37:03,42.805,6.029,0.012,0.017,-0.023,104.0,107.0,101.0,13.4,1505.4,322.9,-0.7,1.9,2470.278,13.34,0.02,35.2
2020-05-14T07:40:03,42.805,6.029,-0.014,0.023,-0.072,105.0,107.0,102.0,13.3,1505.4,326.4,-0.7,1.8,2470.288,13.34,0.026,328.7
2020-05-14T07:43:03,42.805,6.029,0.004,0.017,-0.023,103.0,107.0,103.0,13.3,1505.4,325.7,-0.7,1.8,2470.353,13.34,0.017,13.2
2020-05-14T07:46:03,42.805,6.029,-0.001,0.026,-0.033,104.0,108.0,100.0,13.3,1505.4,326.2,-0.7,1.9,2470.307,13.34,0.026,357.8
2020-05-14T07:49:03,42.805,6.029,0.001,0.021,-0.019,104.0,107.0,100.0,13.4,1505.4,325.0,-0.7,1.8,2470.28,13.34,0.021,2.7
2020-05-14T07:52:03,42.805,6.029,-0.003,0.026,-0.035,104.0,107.0,101.0,13.3,1505.4,324.2,-0.7,1.8,2470.267,13.34,0.026,353.4
2020-05-14T07:55:03,42.805,6.029,-0.005,0.031,-0.03,104.0,107.0,101.0,13.3,1505.4,324.3,-0.7,1.9,2470.296,13.34,0.031,350.8
2020-05-14T07:58:03,42.805,6.029,0.01,0.03,-0.025,104.0,106.0,102.0,13.4,1505.4,326.5,-0.7,1.8,2470.276,13.34,0.031,18.4
2020-05-14T08:04:03,42.805,6.029,0.009,0.029,-0.025,105.0,107.0,100.0,13.4,1505.3,326.3,-0.8,1.8,2470.325,13.32,0.03,17.2
2020-05-14T08:07:03,42.805,6.029,-0.04,0.034,-0.07,102.0,107.0,101.0,13.3,1505.3,324.7,-0.7,1.8,2470.336,13.33,0.052,310.4
2020-05-14T08:10:03,42.805,6.029,-0.001,0.041,-0.041,104.0,106.0,101.0,13.3,1505.3,323.4,-0.7,1.8,2470.302,13.33,0.041,358.6
2020-05-14T08:13:03,42.805,6.029,-0.013,0.014,-0.044,103.0,107.0,101.0,13.4,1505.3,324.7,-0.7,1.9,2470.271,13.33,0.019,317.1
2020-05-14T08:16:03,42.805,6.029,0.001,0.019,-0.028,103.0,106.0,100.0,13.4,1505.4,325.3,-0.7,1.8,2470.268,13.34,0.019,3.0
2020-05-14T08:19:03,42.805,6.029,0.0,0.013,-0.04,104.0,107.0,101.0,13.4,1505.4,327.8,-0.7,1.8,2470.287,13.34,0.013,0.0
2020-05-14T08:22:03,42.805,6.029,-0.011,0.044,-0.026,104.0,106.0,102.0,13.4,1505.4,324.2,-0.7,1.8,2470.317,13.34,0.045,346.0
2020-05-14T08:25:03,42.805,6.029,-0.019,0.027,-0.056,104.0,108.0,100.0,13.4,1505.4,326.0,-0.7,1.8,2470.329,13.34,0.033,324.9
2020-05-14T08:28:03,42.805,6.029,0.004,0.025,-0.031,104.0,106.0,100.0,13.4,1505.4,324.3,-0.7,1.8,2470.28,13.34,0.025,9.1
2020-05-14T08:31:03,42.805,6.029,0.01,0.03,-0.049,103.0,106.0,101.0,13.4,1505.4,323.3,-0.7,1.8,2470.238,13.34,0.031,18.4
2020-05-14T08:34:03,42.805,6.029,-0.007,0.037,-0.025,103.0,107.0,101.0,13.4,1505.4,325.5,-0.7,1.8,2470.27,13.34,0.037,349.3
2020-05-14T08:37:03,42.805,6.029,-0.01,0.023,-0.054,104.0,106.0,101.0,13.3,1505.4,328.7,-0.7,1.8,2470.254,13.34,0.025,336.5
2020-05-14T08:40:03,42.805,6.029,-0.02,0.011,-0.03,105.0,106.0,102.0,13.4,1505.4,326.2,-0.7,1.8,2470.256,13.34,0.022,298.8
2020-05-14T08:46:03,42.805,6.029,-0.006,0.039,0.009,103.0,106.0,102.0,13.4,1505.3,324.2,-0.7,1.8,2470.355,13.32,0.039,351.3
2020-05-14T08:49:03,42.805,6.029,0.0,0.02,-0.029,104.0,107.0,102.0,13.4,1505.3,323.5,-0.7,1.8,2470.312,13.33,0.02,0.0
2020-05-14T08:52:03,42.805,6.029,-0.01,0.025,-0.037,106.0,105.0,103.0,13.4,1505.3,325.5,-0.7,1.8,2470.308,13.33,0.026,338.2
2020-05-14T08:55:03,42.805,6.029,-0.015,0.036,-0.025,104.0,105.0,101.0,13.4,1505.4,324.9,-0.7,1.8,2470.333,13.34,0.039,337.4
2020-05-14T08:58:03,42.805,6.029,0.006,0.02,-0.007,105.0,107.0,101.0,13.4,1505.4,326.4,-0.7,1.8,2470.256,13.34,0.02,16.7
2020-05-14T09:04:03,42.805,6.029,0.006,0.014,-0.016,104.0,105.0,102.0,13.4,1505.3,323.8,-0.8,1.8,2470.346,13.32,0.015,23.2
2020-05-14T09:07:03,42.805,6.029,-0.018,0.01,-0.032,104.0,106.0,101.0,13.4,1505.3,324.9,-0.7,1.8,2470.351,13.33,0.02,299.1
2020-05-14T09:10:03,42.805,6.029,-0.025,0.026,-0.051,105.0,106.0,101.0,13.4,1505.3,323.4,-0.7,1.8,2470.322,13.33,0.036,316.1
2020-05-14T09:13:03,42.805,6.029,-0.018,0.03,-0.054,103.0,106.0,102.0,13.3,1505.4,327.1,-0.7,1.8,2470.319,13.34,0.034,329.0
2020-05-14T09:16:03,42.805,6.029,-0.016,-0.003,-0.02,102.0,106.0,101.0,13.4,1505.4,324.2,-0.7,1.8,2470.316,13.34,0.016,259.4
2020-05-14T09:19:03,42.805,6.029,-0.007,0.032,-0.004,104.0,104.0,102.0,13.4,1505.4,325.2,-0.7,1.8,2470.299,13.34,0.032,347.7
2020-05-14T09:22:03,42.805,6.029,-0.018,0.039,-0.053,105.0,107.0,102.0,13.3,1505.4,324.7,-0.7,1.8,2470.286,13.34,0.042,335.2
2020-05-14T09:25:03,42.805,6.029,-0.019,0.027,-0.051,103.0,106.0,102.0,13.3,1505.4,326.3,-0.7,1.8,2470.302,13.34,0.033,324.9
2020-05-14T09:28:03,42.805,6.029,0.004,0.032,-0.032,104.0,106.0,101.0,13.4,1505.4,323.0,-0.7,1.8,2470.284,13.34,0.032,7.1
2020-05-14T09:31:03,42.805,6.029,-0.012,0.007,-0.036,104.0,107.0,103.0,13.4,1505.4,326.1,-0.7,1.9,2470.271,13.34,0.013,300.3
2020-05-14T09:34:03,42.805,6.029,0.001,0.032,-0.022,104.0,105.0,102.0,13.4,1505.4,328.0,-0.7,1.8,2470.294,13.34,0.032,1.8
2020-05-14T09:37:03,42.805,6.029,0.009,0.02,-0.018,105.0,106.0,100.0,13.4,1505.4,323.2,-0.7,1.8,2470.241,13.34,0.021,24.2
2020-05-14T09:40:03,42.805,6.029,0.0,-0.011,-0.043,105.0,105.0,100.0,13.4,1505.4,326.4,-0.7,1.8,2470.281,13.34,0.011,180.0
2020-05-14T09:43:03,42.805,6.029,0.002,0.026,-0.027,104.0,105.0,100.0,13.4,1505.4,325.6,-0.7,1.8,2470.298,13.34,0.026,4.4
2020-05-14T09:46:03,42.805,6.029,0.005,0.043,0.009,104.0,107.0,102.0,13.3,1505.4,327.2,-0.7,1.8,2470.307,13.34,0.043,6.6
2020-05-14T09:49:03,42.805,6.029,0.001,0.025,-0.022,104.0,104.0,101.0,13.3,1505.4,326.4,-0.7,1.8,2470.287,13.34,0.025,2.3
2020-05-14T09:52:03,42.805,6.029,0.029,0.03,0.001,104.0,106.0,103.0,13.4,1505.4,328.3,-0.7,1.8,2470.27,13.34,0.041,44.0
2020-05-14T09:55:03,42.805,6.029,0.008,0.035,0.021,103.0,105.0,101.0,13.4,1505.4,323.4,-0.7,1.8,2470.295,13.35,0.035,12.9
2020-05-14T09:58:03,42.805,6.029,0.046,0.007,-0.032,103.0,106.0,102.0,13.4,1505.4,324.3,-0.7,1.8,2470.268,13.35,0.046,81.3
2020-05-14T10:04:03,42.805,6.029,0.026,0.018,0.019,104.0,106.0,102.0,13.3,1505.3,325.3,-0.8,1.8,2470.309,13.33,0.031,55.3
2020-05-14T10:07:03,42.805,6.029,0.038,0.03,0.008,103.0,106.0,99.0,13.3,1505.3,323.1,-0.7,1.8,2470.278,13.33,0.048,51.7